Location: Austin
(30.3000°N, 97.7500°W)
Time: 05:39:06
(UTC-05:00)

ATLAS 5 CENTAUR R/B - Pass Details

Date: 16 June 2025
Orbit: 386 x 1113 km, 63.3° (Epoch: 07 July)

Event Time Altitude Azimuth Distance (km) Brightness Sun altitude
Exits shadow 04:10:35 14° 337° (NNW) 1,215 3.4 -24.2°
Drops below altitude 10° 04:11:23 10° 350° (N) 1,427 3.9 -24.1°
Sets 04:13:56 0° 12° (NNE) 2,333 5.5 -23.7°
